TimeEDT,TemperatureF,Dew PointF,Humidity,Sea Level PressureIn,VisibilityMPH,Wind Direction,Wind SpeedMPH,Gust SpeedMPH,PrecipitationIn,Events,Conditions,WindDirDegrees,DateUTC
12:53 AM,60.1,55.0,83,30.25,10.0,East,4.6,-,N/A,,Clear,100,2013-07-14 04:53:00
1:53 AM,57.9,55.0,90,30.25,10.0,East,3.5,-,N/A,,Clear,100,2013-07-14 05:53:00
2:53 AM,57.0,54.0,89,30.25,10.0,Calm,Calm,-,N/A,,Clear,0,2013-07-14 06:53:00
3:53 AM,57.9,55.0,90,30.26,10.0,Calm,Calm,-,N/A,,Clear,0,2013-07-14 07:53:00
4:53 AM,60.1,57.0,90,30.26,10.0,Calm,Calm,-,N/A,,Clear,0,2013-07-14 08:53:00
5:53 AM,54.0,54.0,100,30.28,10.0,Calm,Calm,-,N/A,,Clear,0,2013-07-14 09:53:00
6:53 AM,57.0,55.9,96,30.28,10.0,Calm,Calm,-,N/A,,Clear,0,2013-07-14 10:53:00
7:53 AM,64.9,61.0,87,30.28,10.0,Calm,Calm,-,N/A,,Clear,0,2013-07-14 11:53:00
8:53 AM,73.0,64.0,73,30.28,10.0,SSE,3.5,-,N/A,,Clear,150,2013-07-14 12:53:00
9:53 AM,77.0,64.0,64,30.29,10.0,Calm,Calm,-,N/A,,Clear,0,2013-07-14 13:53:00
10:53 AM,79.0,62.1,56,30.28,10.0,West,5.8,-,N/A,,Clear,260,2013-07-14 14:53:00
11:53 AM,82.0,63.0,52,30.29,10.0,Variable,4.6,-,N/A,,Clear,0,2013-07-14 15:53:00
12:53 PM,84.0,62.1,47,30.29,10.0,SW,6.9,-,N/A,,Clear,230,2013-07-14 16:53:00
1:53 PM,86.0,62.1,44,30.28,10.0,Calm,Calm,-,N/A,,Clear,0,2013-07-14 17:53:00
2:53 PM,87.1,61.0,41,30.27,10.0,Variable,3.5,-,N/A,,Clear,0,2013-07-14 18:53:00
3:53 PM,87.1,61.0,41,30.27,10.0,WSW,4.6,-,N/A,,Clear,250,2013-07-14 19:53:00
4:53 PM,88.0,61.0,40,30.25,10.0,Variable,4.6,-,N/A,,Clear,0,2013-07-14 20:53:00
5:53 PM,88.0,61.0,40,30.25,10.0,Variable,3.5,-,N/A,,Clear,0,2013-07-14 21:53:00
6:53 PM,87.1,64.0,46,30.25,10.0,South,6.9,-,N/A,,Clear,170,2013-07-14 22:53:00
7:53 PM,84.0,64.0,51,30.25,10.0,South,4.6,-,N/A,,Clear,170,2013-07-14 23:53:00
8:53 PM,80.1,64.9,60,30.24,10.0,South,4.6,-,N/A,,Clear,180,2013-07-15 00:53:00
9:53 PM,73.9,66.9,79,30.25,10.0,South,4.6,-,N/A,,Clear,180,2013-07-15 01:53:00
10:53 PM,73.9,66.0,76,30.27,10.0,SSE,5.8,-,N/A,,Clear,160,2013-07-15 02:53:00
11:53 PM,70.0,64.9,84,30.27,10.0,Calm,Calm,-,N/A,,Clear,0,2013-07-15 03:53:00